Content
SEND FEEDBACK

Daily
Averages
Monthly
Summary
United States of America

ALBANY, KENTUCKY


Home > North America > United States > Kentucky
Elevation: 95 feet     Latitude: 36 41N     Longitude: 085 08W

WEATHER
 
SELECT A DAY
Number of Records: 109,196;   Date Range: 2/23/06 - 12/26/14
 
SHARE

PRINT THIS DATA

[ ← Previous Day ]
WEATHER ALMANAC - FEBRUARY 13, 2013
[ Next Day → ]
[ °C ]   °F
Weather ElementAverageHighLow
Temperature36.8 °F43 °F (1:56 am)32.9 °F (11:56 pm)
Dewpoint35 °F37.4 °F (7:20 am)31.1 °F (1:56 am)
Humidity93.6 %100 % (7:20 am)63 % (1:56 am)
Barometer29.85 in30.05 in (11:56 pm)29.75 in (4:13 am)
Wind Speed5.6 mph11.5 mph (11:09 am)
Wind Gust16.1 mph (9:06 am)
Weather ElementAverage
Visibility5.7 mi
Wind DirectionESE (116.2 °)

Weather ElementTotal
Precipitation0.40 in
Heating Degree Days27.1 (Base 65)
Averaged from 45 records on February 13, 2013
WEATHER CONDITIONS BREAKOUT
WIND DIRECTION BREAKOUT
WEATHER BY HOUR - FEBRUARY 13, 2013
[ °C ]   °F
Local TimeTemperatureDewpointHumidityBarometerVisibilityWind DirectionWind SpeedGust SpeedPrecipitationEventsConditions
1:56 AM43.0 °F31.1 °F63 %29.84 in10.0 miSSW (200°)6.9 mphOvercast
2:56 AM41.0 °F34.0 °F76 %29.81 in10.0 miCalm0.00 inOvercast
3:56 AM41.0 °F34.0 °F76 %29.80 in7.0 miCalm0.00 inRainLight Rain
4:13 AM39.2 °F35.6 °F87 %29.75 in4.0 miCalm0.01 inRainLight Rain
4:21 AM39.2 °F35.6 °F87 %29.75 in10.0 miSW (230°)4.6 mph0.01 inRainLight Rain
4:56 AM38.8 °F36.9 °F93 %29.77 in6.0 miCalm0.02 inRainLight Rain
5:56 AM38.8 °F36.0 °F89 %29.76 in6.0 miSSW (210°)3.5 mph0.01 inRainLight Rain
6:56 AM37.9 °F36.9 °F96 %29.77 in3.0 miCalm0.01 inRainLight Rain
7:20 AM37.4 °F37.4 °F100 %29.76 in2.5 miSE (130°)5.8 mph0.00 inRainLight Rain
7:37 AM37.4 °F35.6 °F93 %29.76 in1.5 miSE (140°)10.4 mph0.01 inRainLight Rain
7:56 AM36.9 °F36.0 °F97 %29.80 in1.0 miSouth (190°)9.2 mph0.02 inRainLight Rain
8:06 AM37.4 °F35.6 °F93 %29.77 in1.5 miSouth (180°)9.2 mph0.00 inRainLight Rain
8:17 AM37.4 °F35.6 °F93 %29.77 in1.2 miSouth (190°)9.2 mph0.01 inRainLight Rain
8:56 AM36.0 °F34.9 °F96 %29.80 in1.5 miSSW (200°)9.2 mph0.04 inRainLight Rain
9:06 AM35.6 °F35.6 °F100 %29.77 in1.2 miSSW (200°)5.8 mph16.1 mph0.01 inRainLight Rain
9:09 AM35.6 °F35.6 °F100 %29.76 in1.5 miSSW (210°)6.9 mph0.01 inRainRain
9:18 AM35.6 °F35.6 °F100 %29.76 in2.5 miSSW (200°)9.2 mph0.01 inRainLight Rain
9:29 AM35.6 °F35.6 °F100 %29.76 in1.8 miSSW (210°)10.4 mph0.02 inRainLight Rain
9:43 AM35.6 °F35.6 °F100 %29.76 in2.0 miSSW (210°)5.8 mph0.03 inRainLight Rain
9:56 AM36.0 °F34.9 °F96 %29.79 in2.0 miSW (230°)3.5 mph0.03 inRainLight Rain
10:42 AM35.6 °F35.6 °F100 %29.79 in1.2 miCalm0.01 inRainLight Rain
10:48 AM35.6 °F35.6 °F100 %29.79 in0.8 miSE (140°)6.9 mph0.01 inRainLight Rain
10:56 AM36.9 °F36.9 °F100 %29.83 in0.8 miESE (120°)9.2 mph0.02 inRainLight Rain
11:09 AM35.6 °F35.6 °F100 %29.79 in1.2 miSouth (170°)11.5 mph0.03 inRainLight Rain
11:16 AM37.4 °F37.4 °F100 %29.79 in2.0 miSouth (170°)11.5 mph0.03 inRainLight Rain
11:56 AM36.0 °F36.0 °F100 %29.85 in2.5 miSE (140°)9.2 mph0.05 inRainLight Rain
12:04 PM35.6 °F35.6 °F100 %29.82 in4.0 miSSE (150°)9.2 mph0.00 inRainLight Rain
12:56 PM36.0 °F36.0 °F100 %29.86 in4.0 miSSE (150°)10.4 mph0.00 inRainLight Rain
1:10 PM37.4 °F35.6 °F93 %29.83 in6.0 miSSE (150°)8.1 mph0.00 inRainLight Rain
1:56 PM36.9 °F34.9 °F93 %29.88 in7.0 miSSE (150°)8.1 mph0.00 inRainLight Rain
2:56 PM36.9 °F34.9 °F93 %29.90 in9.0 miSE (140°)8.1 mph0.00 inOvercast
3:19 PM37.4 °F35.6 °F93 %29.87 in10.0 miSE (140°)5.8 mphOvercast
3:30 PM37.4 °F33.8 °F87 %29.88 in10.0 miESE (120°)6.9 mphOvercast
3:56 PM36.9 °F32.9 °F86 %29.92 in10.0 miESE (120°)8.1 mphOvercast
4:56 PM36.9 °F32.9 °F86 %29.94 in10.0 miEast (90°)4.6 mphMostly Cloudy
5:21 PM35.6 °F33.8 °F93 %29.92 in10.0 miEast (90°)4.6 mphMostly Cloudy
5:36 PM35.6 °F33.8 °F93 %29.92 in10.0 miEast (80°)3.5 mphOvercast
5:56 PM36.0 °F32.9 °F89 %29.97 in10.0 miCalmOvercast
6:56 PM36.0 °F34.9 °F96 %29.99 in10.0 miNNE (30°)4.6 mphOvercast
7:56 PM36.9 °F34.0 °F89 %30.00 in10.0 miENE (60°)3.5 mphOvercast
8:56 PM36.0 °F34.9 °F96 %30.02 in10.0 miCalmOvercast
9:56 PM36.0 °F34.9 °F96 %30.03 in10.0 miCalmOvercast
10:56 PM34.9 °F34.0 °F97 %30.04 in10.0 miNE (50°)4.6 mphMostly Cloudy
11:26 PM33.8 °F33.8 °F100 %30.01 in10.0 miNE (40°)3.5 mphScattered Clouds
11:56 PM32.9 °F32.0 °F96 %30.05 in10.0 miCalmScattered Clouds
Hourly data recorded from KEKQ, located miles away from Albany, Kentucky







STORIES FROM OUR PARTNERS